GW3504 Weather Reports


time (UTC)temp
C
wind
direction
speed
KPH
gust
KPH
rain 1hr
cm
rain 24hr
cm
rain mn
cm
humidity
%
barometer
mb
20260508031024 16 0 3.2 16.1 0.00 0.00 0.00 57 1011.1
20260508030522 16 229 3.2 16.1 0.00 0.00 0.00 57 1011.2
20260508030048 17 154 1.6 17.7 0.00 0.00 0.00 57 1011.0
20260508025522 17 183 6.4 17.7 0.00 0.00 0.00 56 1010.9
20260508025023 17 194 6.4 16.1 0.00 0.00 0.00 56 1010.9
20260508024536 17 163 4.8 17.7 0.00 0.00 0.00 56 1010.8
20260508024025 17 0 3.2 17.7 0.00 0.00 0.00 56 1010.8
20260508023524 17 182 1.6 16.1 0.00 0.00 0.00 55 1010.8
20260508023037 17 186 4.8 16.1 0.00 0.00 0.00 55 1010.7
20260508022523 17 165 4.8 12.9 0.00 0.00 0.00 54 1010.8
20260508022021 17 170 3.2 16.1 0.00 0.00 0.00 54 1010.6
20260508021541 17 173 3.2 16.1 0.00 0.00 0.00 53 1010.6
20260508021024 17 162 1.6 12.9 0.00 0.00 0.00 53 1010.6
20260508020526 17 184 3.2 12.9 0.00 0.00 0.00 53 1010.6
20260508020036 17 173 3.2 12.9 0.00 0.00 0.00 52 1010.4
20260508015524 18 188 1.6 12.9 0.00 0.00 0.00 51 1010.4
20260508015024 18 155 3.2 12.9 0.00 0.00 0.00 51 1010.3
20260508014535 18 0 1.6 11.3 0.00 0.00 0.00 50 1010.3
20260508014024 18 169 1.6 9.7 0.00 0.00 0.00 49 1010.4
20260508013523 18 179 1.6 9.7 0.00 0.00 0.00 48 1010.2
20260508013034 18 175 3.2 11.3 0.00 0.00 0.00 49 1010.2
20260508012523 18 0 3.2 11.3 0.00 0.00 0.00 48 1010.3
20260508012024 18 182 1.6 9.7 0.00 0.00 0.00 48 1010.3
20260508011536 18 146 1.6 11.3 0.00 0.00 0.00 47 1010.2
20260508011023 18 183 3.2 11.3 0.00 0.00 0.00 47 1010.1
20260508010523 18 177 3.2 9.7 0.00 0.00 0.00 47 1010.1
20260508010042 19 160 1.6 11.3 0.00 0.00 0.00 46 1010.1
20260508005526 19 0 3.2 12.9 0.00 0.00 0.00 46 1010.1
20260508005023 19 150 1.6 12.9 0.00 0.00 0.00 46 1010.2
20260508004538 19 158 3.2 11.3 0.00 0.00 0.00 45 1010.1
20260508004023 19 152 3.2 11.3 0.00 0.00 0.00 45 1010.2
20260508003522 20 157 1.6 11.3 0.00 0.00 0.00 45 1010.1
20260508003037 20 0 1.6 11.3 0.00 0.00 0.00 45 1010.2
20260508002524 20 163 1.6 11.3 0.00 0.00 0.00 44 1010.2
20260508002023 20 162 1.6 12.9 0.00 0.00 0.00 44 1010.1
20260508001536 20 179 1.6 12.9 0.00 0.00 0.00 43 1010.1
20260508001023 20 153 1.6 14.5 0.00 0.00 0.00 43 1010.2
20260508000526 20 0 3.2 17.7 0.00 0.00 0.00 43 1010.2
20260508000034 20 136 4.8 17.7 0.00 0.00 0.00 43 1010.2
20260507235523 20 180 4.8 17.7 0.00 0.00 0.00 42 1010.2
20260507235023 20 190 6.4 17.7 0.00 0.00 0.00 42 1010.3
20260507234541 21 215 3.2 24.1 0.00 0.00 0.00 41 1010.3
20260507234024 21 190 4.8 24.1 0.00 0.00 0.00 42 1010.4
20260507233523 21 170 3.2 16.1 0.00 0.00 0.00 41 1010.4
20260507233036 21 273 3.2 16.1 0.00 0.00 0.00 42 1010.4
20260507232524 21 169 3.2 16.1 0.00 0.00 0.00 41 1010.5
20260507232024 21 142 4.8 14.5 0.00 0.00 0.00 41 1010.6
20260507231535 21 135 3.2 16.1 0.00 0.00 0.00 42 1010.6
20260507231023 21 140 3.2 16.1 0.00 0.00 0.00 41 1010.7
20260507230522 21 273 1.6 17.7 0.00 0.00 0.00 42 1010.7
20260507230036 21 248 3.2 19.3 0.00 0.00 0.00 43 1010.8
20260507225524 21 194 4.8 19.3 0.00 0.00 0.00 42 1010.8
20260507225022 21 292 3.2 14.5 0.00 0.00 0.00 43 1010.9
20260507224535 21 0 4.8 14.5 0.00 0.00 0.00 42 1010.9
20260507224023 21 0 3.2 12.9 0.00 0.00 0.00 42 1011.0
20260507223523 21 155 3.2 12.9 0.00 0.00 0.00 42 1011.0
20260507223034 21 0 3.2 12.9 0.00 0.00 0.00 42 1011.1
20260507222523 21 163 3.2 11.3 0.00 0.00 0.00 44 1011.1
20260507222022 21 180 3.2 12.9 0.00 0.00 0.00 43 1011.1
20260507221535 21 118 1.6 14.5 0.00 0.00 0.00 44 1011.2
20260507221022 21 148 4.8 17.7 0.00 0.00 0.00 43 1011.2
20260507220524 21 0 3.2 17.7 0.00 0.00 0.00 43 1011.2
20260507220037 21 341 4.8 14.5 0.00 0.00 0.00 43 1011.2
20260507215524 21 0 3.2 19.3 0.00 0.00 0.00 42 1011.3
20260507215027 21 0 6.4 19.3 0.00 0.00 0.00 43 1011.3
20260507214534 21 210 4.8 20.9 0.00 0.00 0.00 43 1011.3
20260507214023 21 121 4.8 20.9 0.00 0.00 0.00 44 1011.4
20260507213523 21 151 3.2 16.1 0.00 0.00 0.00 44 1011.4
20260507213038 21 260 4.8 19.3 0.00 0.00 0.00 41 1011.4
20260507212523 21 155 4.8 19.3 0.00 0.00 0.00 42 1011.6
20260507212021 21 283 1.6 25.7 0.00 0.00 0.00 46 1011.7
20260507211533 21 192 8.0 25.7 0.00 0.00 0.00 44 1011.7
20260507211021 21 178 6.4 19.3 0.00 0.00 0.00 45 1011.8
20260507210523 21 257 4.8 29.0 0.00 0.00 0.00 43 1011.8
20260507210036 21 162 3.2 29.0 0.00 0.00 0.00 43 1012.0
20260507205524 21 138 4.8 19.3 0.00 0.00 0.00 44 1012.1
20260507205024 21 148 4.8 20.9 0.00 0.00 0.00 46 1012.2
20260507204538 21 350 8.0 20.9 0.00 0.00 0.00 43 1012.2
20260507204023 21 352 4.8 19.3 0.00 0.00 0.00 44 1012.4
20260507203525 21 0 3.2 19.3 0.00 0.00 0.00 44 1012.4
20260507203036 20 288 8.0 19.3 0.00 0.00 0.00 44 1012.7
20260507202523 20 135 1.6 16.1 0.00 0.00 0.00 47 1012.7
20260507202023 20 232 6.4 22.5 0.00 0.00 0.00 47 1012.8
20260507201539 20 311 6.4 22.5 0.00 0.00 0.00 44 1012.9
20260507201024 20 166 6.4 22.5 0.00 0.00 0.00 45 1012.9
20260507200525 20 331 3.2 19.3 0.00 0.00 0.00 46 1013.1
20260507200048 20 276 4.8 14.5 0.00 0.00 0.00 45 1013.1
20260507195521 20 157 3.2 16.1 0.00 0.00 0.00 47 1013.4
20260507195028 20 0 4.8 17.7 0.00 0.00 0.00 47 1013.4
20260507194545 20 308 6.4 19.3 0.00 0.00 0.00 47 1013.5
20260507194023 20 243 4.8 25.7 0.00 0.00 0.00 47 1013.6
20260507193525 20 181 3.2 25.7 0.00 0.00 0.00 48 1013.5
20260507193037 20 316 4.8 25.7 0.00 0.00 0.00 48 1013.7
20260507192523 20 187 4.8 17.7 0.00 0.00 0.00 47 1013.6
20260507192022 20 248 4.8 19.3 0.00 0.00 0.00 48 1013.8
20260507191535 19 317 4.8 29.0 0.00 0.00 0.00 49 1013.7
20260507191023 19 166 3.2 29.0 0.00 0.00 0.00 50 1013.8
20260507190524 19 245 8.0 19.3 0.00 0.00 0.00 47 1013.8
20260507190035 20 236 3.2 20.9 0.00 0.00 0.00 49 1013.8
20260507185523 19 238 4.8 25.7 0.00 0.00 0.00 51 1013.8
20260507185025 18 0 6.4 25.7 0.00 0.00 0.00 49 1013.8
20260507184554 19 211 4.8 19.3 0.00 0.00 0.00 50 1013.9
20260507184024 18 333 4.8 17.7 0.00 0.00 0.00 51 1013.9
20260507183525 18 186 6.4 17.7 0.00 0.00 0.00 50 1014.1
20260507183042 18 251 3.2 16.1 0.00 0.00 0.00 51 1014.2
20260507182525 18 334 4.8 27.4 0.00 0.00 0.00 51 1014.2
20260507182025 18 292 4.8 27.4 0.00 0.00 0.00 51 1014.5
20260507181539 18 319 4.8 22.5 0.00 0.00 0.00 53 1014.5
20260507181027 18 279 6.4 20.9 0.00 0.00 0.00 52 1014.6
20260507180524 18 248 4.8 17.7 0.00 0.00 0.00 53 1014.7
20260507180034 18 252 4.8 17.7 0.00 0.00 0.00 52 1014.8
20260507175525 18 281 3.2 19.3 0.00 0.00 0.00 52 1014.7
20260507175024 18 297 3.2 19.3 0.00 0.00 0.00 53 1014.8
20260507174536 18 317 3.2 17.7 0.00 0.00 0.00 52 1014.9
20260507174025 17 169 3.2 25.7 0.00 0.00 0.00 54 1015.0
20260507173523 17 193 8.0 25.7 0.00 0.00 0.00 52 1015.1
20260507173043 17 0 3.2 22.5 0.00 0.00 0.00 54 1015.3
20260507172525 16 103 8.0 22.5 0.00 0.00 0.00 54 1015.4
20260507172025 17 193 3.2 22.5 0.00 0.00 0.00 55 1015.4
20260507171536 17 329 3.2 17.7 0.00 0.00 0.00 55 1015.3
20260507171026 16 0 4.8 22.5 0.00 0.00 0.00 56 1015.4
20260507170526 16 305 6.4 22.5 0.00 0.00 0.00 56 1015.5
20260507170035 16 290 4.8 19.3 0.00 0.00 0.00 56 1015.6
20260507165523 16 269 3.2 19.3 0.00 0.00 0.00 55 1015.6
20260507165024 16 292 6.4 19.3 0.00 0.00 0.00 57 1015.7
20260507164543 17 261 3.2 17.7 0.00 0.00 0.00 57 1015.7
20260507164024 16 5 3.2 16.1 0.00 0.00 0.00 56 1015.8
20260507163526 16 184 3.2 22.5 0.00 0.00 0.00 54 1015.9
20260507163037 16 315 3.2 22.5 0.00 0.00 0.00 56 1016.0
20260507162525 16 302 1.6 19.3 0.00 0.00 0.00 58 1016.1
20260507162025 16 5 3.2 14.5 0.00 0.00 0.00 59 1016.0
20260507161547 15 157 3.2 14.5 0.00 0.00 0.00 58 1016.2
20260507161025 16 109 1.6 16.1 0.00 0.00 0.00 58 1016.2
20260507160528 16 157 1.6 16.1 0.00 0.00 0.00 57 1016.1
20260507160036 16 295 1.6 14.5 0.00 0.00 0.00 56 1016.3
20260507155524 16 0 1.6 14.5 0.00 0.00 0.00 60 1016.3
20260507155026 15 0 3.2 14.5 0.00 0.00 0.00 57 1016.3
20260507154537 16 315 1.6 12.9 0.00 0.00 0.00 58 1016.2
20260507154025 15 279 1.6 12.9 0.00 0.00 0.00 57 1016.1
20260507153525 15 292 1.6 27.4 0.00 0.00 0.00 60 1016.4
20260507153035 15 294 4.8 27.4 0.00 0.00 0.00 61 1016.5
20260507152524 15 302 1.6 19.3 0.00 0.00 0.00 61 1016.5
20260507152024 15 329 4.8 19.3 0.00 0.00 0.00 61 1016.5
20260507151535 15 0 3.2 14.5 0.00 0.00 0.00 59 1016.6
20260507151025 15 311 0.0 16.1 0.00 0.00 0.00 63 1016.6
20260507150526 14 0 3.2 16.1 0.00 0.00 0.00 62 1016.6
20260507150039 15 211 1.6 9.7 0.00 0.00 0.00 61 1016.8
20260507145524 15 0 0.0 16.1 0.00 0.00 0.00 63 1016.7
20260507145028 14 351 3.2 16.1 0.00 0.00 0.00 62 1016.8
20260507144537 14 0 1.6 16.1 0.00 0.00 0.00 65 1016.9
20260507144025 13 0 1.6 16.1 0.00 0.00 0.00 66 1016.9
20260507143526 13 0 3.2 16.1 0.00 0.00 0.00 64 1016.9
20260507143055 13 280 1.6 14.5 0.00 0.00 0.00 65 1016.8
20260507142527 13 0 1.6 22.5 0.00 0.00 0.00 67 1016.8
20260507142025 13 278 0.0 22.5 0.00 0.00 0.00 68 1016.9
20260507141600 13 281 1.6 9.7 0.00 0.00 0.00 68 1017.0
20260507141025 12 0 1.6 12.9 0.00 0.00 0.00 69 1017.0
20260507140525 12 0 0.0 12.9 0.00 0.00 0.00 70 1016.9
20260507140041 12 163 0.0 12.9 0.00 0.00 0.00 69 1017.0
20260507135525 12 0 1.6 17.7 0.00 0.00 0.00 71 1017.1
20260507135025 12 301 0.0 17.7 0.00 0.00 0.00 72 1017.2
20260507134535 11 308 1.6 17.7 0.00 0.00 0.00 72 1017.2
20260507134029 11 0 0.0 6.4 0.00 0.00 0.00 73 1017.2
20260507133528 11 248 0.0 11.3 0.00 0.00 0.00 75 1017.1
20260507133037 11 0 0.0 11.3 0.00 0.00 0.00 75 1017.1
20260507132524 11 0 0.0 11.3 0.00 0.00 0.00 76 1017.2
20260507132024 10 0 0.0 6.4 0.00 0.00 0.00 78 1017.0
20260507131541 10 0 0.0 6.4 0.00 0.00 0.00 78 1017.1
20260507131028 10 0 0.0 3.2 0.00 0.00 0.00 80 1017.2
20260507130527 9 0 0.0 3.2 0.00 0.00 0.00 81 1017.2
20260507130045 9 0 0.0 3.2 0.00 0.00 0.00 81 1017.2
20260507125525 9 0 0.0 6.4 0.00 0.00 0.00 82 1017.2
20260507125027 8 0 0.0 6.4 0.00 0.00 0.00 83 1017.2
20260507124540 8 0 0.0 3.2 0.00 0.00 0.00 84 1017.3
20260507124025 8 0 0.0 0.0 0.00 0.00 0.00 85 1017.4
20260507123525 7 0 0.0 0.0 0.00 0.00 0.00 86 1017.4
20260507123040 7 0 0.0 3.2 0.00 0.00 0.00 86 1017.4
20260507122524 7 0 0.0 3.2 0.00 0.00 0.00 87 1017.4
20260507122024 7 0 0.0 0.0 0.00 0.00 0.00 87 1017.3
20260507121542 7 0 0.0 0.0 0.00 0.00 0.00 87 1017.3
20260507121025 6 0 0.0 0.0 0.00 0.00 0.00 87 1017.2
20260507120529 6 0 0.0 0.0 0.00 0.00 0.00 87 1017.3
20260507120036 6 0 0.0 0.0 0.00 0.00 0.00 87 1017.2
20260507115525 6 0 0.0 0.0 0.00 0.00 0.00 87 1017.2
20260507115026 6 0 0.0 0.0 0.00 0.00 0.00 87 1017.2
20260507114541 6 0 0.0 0.0 0.00 0.00 0.00 87 1017.2
20260507114026 6 0 0.0 0.0 0.00 0.00 0.00 87 1017.3
20260507113528 6 0 0.0 0.0 0.00 0.00 0.00 87 1017.2
20260507113037 6 0 0.0 0.0 0.00 0.00 0.00 86 1017.2
20260507112524 6 0 0.0 0.0 0.00 0.00 0.00 86 1017.2
20260507112025 6 0 0.0 0.0 0.00 0.00 0.00 86 1017.1
20260507111536 6 0 0.0 0.0 0.00 0.00 0.00 86 1017.1
20260507111024 6 0 0.0 0.0 0.00 0.00 0.00 86 1017.1
20260507110523 6 0 0.0 0.0 0.00 0.00 0.00 86 1017.1
20260507110037 6 0 0.0 0.0 0.00 0.00 0.00 86 1017.1
20260507105526 6 0 0.0 0.0 0.00 0.00 0.00 86 1017.0
20260507105024 6 0 0.0 0.0 0.00 0.00 0.00 86 1017.0
20260507104539 6 0 0.0 0.0 0.00 0.00 0.00 86 1017.0
20260507104025 6 0 0.0 0.0 0.00 0.00 0.00 86 1017.1
20260507103525 6 0 0.0 0.0 0.00 0.00 0.00 86 1017.0
20260507103039 6 0 0.0 0.0 0.00 0.00 0.00 86 1017.1
20260507102525 6 0 0.0 0.0 0.00 0.00 0.00 86 1017.1
20260507102023 6 0 0.0 0.0 0.00 0.00 0.00 85 1017.1
20260507101537 6 0 0.0 0.0 0.00 0.00 0.00 85 1017.1
20260507101028 6 0 0.0 0.0 0.00 0.00 0.00 85 1017.1
20260507100525 6 0 0.0 0.0 0.00 0.00 0.00 85 1017.2
20260507100046 6 0 0.0 0.0 0.00 0.00 0.00 85 1017.2
20260507095528 6 0 0.0 0.0 0.00 0.00 0.00 85 1017.1
20260507095026 6 0 0.0 0.0 0.00 0.00 0.00 85 1017.3
20260507094537 6 0 0.0 0.0 0.00 0.00 0.00 85 1017.1
20260507094026 6 0 0.0 0.0 0.00 0.00 0.00 84 1017.2
20260507093525 6 0 0.0 0.0 0.00 0.00 0.00 84 1017.2
20260507093037 6 0 0.0 0.0 0.00 0.00 0.00 84 1017.2
20260507092522 6 0 0.0 0.0 0.00 0.00 0.00 83 1017.4
20260507092027 6 0 0.0 0.0 0.00 0.00 0.00 83 1017.3
20260507091541 6 0 0.0 0.0 0.00 0.00 0.00 83 1017.3
20260507091022 6 0 0.0 0.0 0.00 0.00 0.00 83 1017.3
20260507090524 6 0 0.0 0.0 0.00 0.00 0.00 82 1017.4
20260507090044 6 0 0.0 0.0 0.00 0.00 0.00 82 1017.4
20260507085524 6 0 0.0 0.0 0.00 0.00 0.00 81 1017.4
20260507085023 6 0 0.0 0.0 0.00 0.00 0.00 81 1017.5
20260507084548 6 0 0.0 0.0 0.00 0.00 0.00 81 1017.5
20260507084025 6 0 0.0 0.0 0.00 0.00 0.00 81 1017.6
20260507083522 6 0 0.0 0.0 0.00 0.00 0.00 80 1017.7
20260507083035 7 0 0.0 0.0 0.00 0.00 0.00 80 1017.7
20260507082523 7 0 0.0 0.0 0.00 0.00 0.00 79 1017.7
20260507082024 7 0 0.0 0.0 0.00 0.00 0.00 79 1017.6
20260507081534 7 0 0.0 0.0 0.00 0.00 0.00 79 1017.6
20260507081023 7 0 0.0 0.0 0.00 0.00 0.00 78 1017.6
20260507080523 7 0 0.0 0.0 0.00 0.00 0.00 78 1017.5
20260507080041 7 0 0.0 0.0 0.00 0.00 0.00 77 1017.6
20260507075522 7 0 0.0 0.0 0.00 0.00 0.00 76 1017.6
20260507075021 7 0 0.0 0.0 0.00 0.00 0.00 76 1017.6
20260507074538 7 0 0.0 0.0 0.00 0.00 0.00 75 1017.5
20260507074023 7 0 0.0 0.0 0.00 0.00 0.00 75 1017.6
20260507073524 7 0 0.0 0.0 0.00 0.00 0.00 75 1017.5
20260507073036 7 0 0.0 0.0 0.00 0.00 0.00 74 1017.6
20260507072526 7 0 0.0 0.0 0.00 0.00 0.00 74 1017.6
20260507072023 7 0 0.0 0.0 0.00 0.00 0.00 73 1017.6
20260507071537 7 0 0.0 0.0 0.00 0.00 0.00 73 1017.7
20260507071027 7 0 0.0 0.0 0.00 0.00 0.00 73 1017.8
20260507070523 7 0 0.0 0.0 0.00 0.00 0.00 72 1017.8
20260507070041 7 0 0.0 0.0 0.00 0.00 0.00 72 1018.0
20260507065521 8 0 0.0 0.0 0.00 0.00 0.00 72 1018.1
20260507065023 8 0 0.0 0.0 0.00 0.00 0.00 72 1018.1
20260507064558 8 0 0.0 0.0 0.00 0.00 0.00 71 1018.1
20260507064023 8 0 0.0 0.0 0.00 0.00 0.00 70 1018.1
20260507063522 8 0 0.0 0.0 0.00 0.00 0.00 70 1018.3
20260507063037 8 0 0.0 0.0 0.00 0.00 0.00 69 1018.3
20260507062525 8 0 0.0 0.0 0.00 0.00 0.00 69 1018.3
20260507062023 8 0 0.0 0.0 0.00 0.00 0.00 68 1018.3
20260507061536 8 0 0.0 0.0 0.00 0.00 0.00 69 1018.3
20260507061020 8 0 0.0 0.0 0.00 0.00 0.00 69 1018.5
20260507060524 8 0 0.0 0.0 0.00 0.00 0.00 68 1018.3
20260507060041 8 0 0.0 0.0 0.00 0.00 0.00 69 1018.4
20260507055522 8 0 0.0 0.0 0.00 0.00 0.00 69 1018.4
20260507055028 8 0 0.0 0.0 0.00 0.00 0.00 70 1018.4
20260507054536 8 0 0.0 0.0 0.00 0.00 0.00 71 1018.4
20260507054024 8 0 0.0 0.0 0.00 0.00 0.00 73 1018.5
20260507053521 8 0 0.0 0.0 0.00 0.00 0.00 75 1018.4
20260507053037 8 0 0.0 0.0 0.00 0.00 0.00 77 1018.4
20260507052524 8 0 0.0 0.0 0.00 0.00 0.00 79 1018.5
20260507052021 8 0 0.0 0.0 0.00 0.00 0.00 80 1018.6
20260507051545 8 0 0.0 0.0 0.00 0.00 0.00 81 1018.5
20260507051024 7 0 0.0 0.0 0.00 0.00 0.00 81 1018.5
20260507050521 7 0 0.0 0.0 0.00 0.00 0.00 81 1018.5
20260507050044 7 0 0.0 0.0 0.00 0.00 0.00 81 1018.5
20260507045524 7 0 0.0 0.0 0.00 0.00 0.00 81 1018.5
20260507045027 7 0 0.0 0.0 0.00 0.00 0.00 80 1018.4
20260507044535 7 0 0.0 0.0 0.00 0.00 0.00 80 1018.5
20260507044023 7 0 0.0 0.0 0.00 0.00 0.00 80 1018.5
20260507043523 7 0 0.0 0.0 0.00 0.00 0.00 79 1018.4
20260507043035 7 0 0.0 0.0 0.00 0.00 0.00 79 1018.6
20260507042523 7 0 0.0 0.0 0.00 0.00 0.00 78 1018.6
20260507042024 8 0 0.0 0.0 0.00 0.00 0.00 77 1018.6
20260507041537 8 0 0.0 0.0 0.00 0.00 0.00 77 1018.5
20260507041027 8 0 0.0 0.0 0.00 0.00 0.00 77 1018.5
20260507040522 8 0 0.0 0.0 0.00 0.00 0.00 76 1018.5
20260507040038 8 0 0.0 0.0 0.00 0.00 0.00 76 1018.5
20260507035523 8 0 0.0 0.0 0.00 0.00 0.00 75 1018.6
20260507035022 8 0 0.0 0.0 0.00 0.00 0.00 75 1018.5
20260507034538 8 0 0.0 0.0 0.00 0.00 0.00 74 1018.7
20260507034024 8 0 0.0 0.0 0.00 0.00 0.00 73 1018.7
20260507033526 8 0 0.0 0.0 0.00 0.00 0.00 71 1018.8
20260507033035 8 0 0.0 0.0 0.00 0.00 0.00 71 1018.8
20260507032523 8 0 0.0 0.0 0.00 0.00 0.00 71 1018.9
20260507032024 8 0 0.0 0.0 0.00 0.00 0.00 69 1018.9
20260507031535 8 0 0.0 0.0 0.00 0.00 0.00 68 1018.7